TimeCST,TemperatureF,Dew PointF,Humidity,Sea Level PressureIn,VisibilityMPH,Wind Direction,Wind SpeedMPH,Gust SpeedMPH,PrecipitationIn,Events,Conditions,WindDirDegrees,DateUTC
12:15 AM,35.6,15.8,44,29.91,10.0,SSW,15.0,-,N/A,,Clear,200,2012-12-13 06:15:00
12:35 AM,35.4,16.2,46,29.90,10.0,South,15.0,21.9,N/A,,Clear,190,2012-12-13 06:35:00
12:55 AM,35.6,16.3,46,29.90,10.0,SSW,15.0,20.7,N/A,,Clear,200,2012-12-13 06:55:00
1:15 AM,34.3,16.3,48,29.91,10.0,SSW,15.0,-,N/A,,Clear,200,2012-12-13 07:15:00
1:35 AM,33.6,16.5,50,29.91,10.0,SSW,12.7,18.4,N/A,,Clear,210,2012-12-13 07:35:00
1:55 AM,33.4,16.7,50,29.91,10.0,SSW,12.7,-,N/A,,Clear,210,2012-12-13 07:55:00
2:15 AM,33.1,16.7,51,29.91,10.0,SSW,12.7,-,N/A,,Clear,210,2012-12-13 08:15:00
2:35 AM,32.9,17.1,52,29.91,10.0,SSW,11.5,-,N/A,,Clear,200,2012-12-13 08:35:00
2:55 AM,33.3,17.2,52,29.92,10.0,SSW,11.5,-,N/A,,Clear,210,2012-12-13 08:55:00
3:15 AM,32.5,17.2,53,29.93,10.0,SSW,11.5,-,N/A,,Clear,210,2012-12-13 09:15:00
3:35 AM,31.6,17.1,55,29.92,10.0,SSW,11.5,-,N/A,,Clear,200,2012-12-13 09:35:00
3:55 AM,32.0,17.4,55,29.92,10.0,SSW,11.5,-,N/A,,Clear,210,2012-12-13 09:55:00
4:15 AM,32.0,17.6,55,29.92,10.0,SSW,10.4,-,N/A,,Clear,210,2012-12-13 10:15:00
4:35 AM,30.9,17.6,58,29.93,10.0,SW,6.9,-,N/A,,Clear,230,2012-12-13 10:35:00
4:55 AM,29.8,17.4,60,29.93,10.0,SW,9.2,-,N/A,,Clear,230,2012-12-13 10:55:00
5:15 AM,28.2,16.7,62,29.93,10.0,SW,8.1,-,N/A,,Clear,230,2012-12-13 11:15:00
5:35 AM,28.2,16.9,63,29.94,10.0,SW,10.4,-,N/A,,Clear,220,2012-12-13 11:35:00
6:15 AM,26.1,16.0,66,29.95,10.0,SW,6.9,-,N/A,,Clear,230,2012-12-13 12:15:00
6:35 AM,25.0,16.0,69,29.96,10.0,SW,6.9,-,N/A,,Clear,230,2012-12-13 12:35:00
6:55 AM,25.0,15.6,68,29.97,10.0,SW,8.1,-,N/A,,Clear,230,2012-12-13 12:55:00
7:15 AM,25.0,15.4,67,29.97,10.0,SW,6.9,-,N/A,,Clear,230,2012-12-13 13:15:00
7:35 AM,24.8,15.4,68,29.97,10.0,SW,6.9,-,N/A,,Clear,230,2012-12-13 13:35:00
7:55 AM,25.5,15.8,67,29.98,10.0,SW,9.2,-,N/A,,Clear,230,2012-12-13 13:55:00
8:15 AM,27.1,16.2,63,29.99,10.0,SW,8.1,-,N/A,,Clear,230,2012-12-13 14:15:00
8:35 AM,28.8,16.7,61,29.99,10.0,SW,6.9,-,N/A,,Clear,220,2012-12-13 14:35:00
8:55 AM,31.5,17.6,57,29.99,10.0,SW,6.9,-,N/A,,Clear,230,2012-12-13 14:55:00
9:15 AM,33.1,18.3,55,30.00,10.0,WSW,5.8,-,N/A,,Clear,240,2012-12-13 15:15:00
9:35 AM,36.3,18.7,49,30.01,10.0,SW,9.2,-,N/A,,Clear,230,2012-12-13 15:35:00
9:55 AM,38.8,19.2,45,30.02,10.0,West,5.8,-,N/A,,Clear,270,2012-12-13 15:55:00
10:15 AM,41.4,19.6,42,30.03,10.0,WNW,5.8,-,N/A,,Clear,290,2012-12-13 16:15:00
10:35 AM,45.3,19.8,36,30.03,10.0,WNW,5.8,-,N/A,,Clear,300,2012-12-13 16:35:00
10:55 AM,47.5,20.1,34,30.03,10.0,NNW,6.9,-,N/A,,Clear,330,2012-12-13 16:55:00
11:15 AM,49.3,21.0,33,30.03,10.0,North,9.2,-,N/A,,Clear,360,2012-12-13 17:15:00
11:35 AM,48.7,21.0,34,30.03,10.0,North,10.4,-,N/A,,Clear,360,2012-12-13 17:35:00
11:55 AM,49.3,21.6,34,30.02,10.0,North,6.9,-,N/A,,Clear,10,2012-12-13 17:55:00
12:15 PM,50.9,22.3,33,30.02,10.0,NNE,5.8,-,N/A,,Clear,20,2012-12-13 18:15:00
12:35 PM,50.5,22.1,33,30.01,10.0,NNE,5.8,-,N/A,,Clear,20,2012-12-13 18:35:00
12:55 PM,51.3,22.3,32,30.01,10.0,North,5.8,-,N/A,,Clear,10,2012-12-13 18:55:00
1:15 PM,51.3,22.5,32,30.01,10.0,Calm,Calm,-,N/A,,Clear,0,2012-12-13 19:15:00
1:35 PM,51.4,22.6,32,30.01,10.0,NNE,3.5,-,N/A,,Clear,20,2012-12-13 19:35:00
1:55 PM,51.8,22.6,32,30.01,10.0,NE,3.5,-,N/A,,Clear,40,2012-12-13 19:55:00
2:15 PM,53.1,23.0,31,30.01,10.0,North,3.5,-,N/A,,Clear,10,2012-12-13 20:15:00
2:35 PM,52.7,23.0,31,30.00,10.0,ENE,3.5,-,N/A,,Clear,60,2012-12-13 20:35:00
2:55 PM,52.9,23.0,31,30.00,10.0,NNE,3.5,-,N/A,,Clear,30,2012-12-13 20:55:00
3:15 PM,52.5,23.4,32,30.00,10.0,NE,6.9,-,N/A,,Clear,40,2012-12-13 21:15:00
3:35 PM,51.6,23.2,33,30.01,10.0,NNE,4.6,-,N/A,,Clear,30,2012-12-13 21:35:00
3:55 PM,50.7,23.0,34,30.01,10.0,NE,4.6,-,N/A,,Clear,40,2012-12-13 21:55:00
4:15 PM,48.6,22.5,36,30.01,10.0,NE,4.6,-,N/A,,Clear,50,2012-12-13 22:15:00
4:35 PM,46.0,22.1,39,30.01,10.0,ENE,5.8,-,N/A,,Clear,60,2012-12-13 22:35:00
6:15 PM,36.3,19.9,52,30.03,10.0,ENE,8.1,-,N/A,,Clear,60,2012-12-14 00:15:00
7:15 PM,32.0,20.3,62,30.03,10.0,East,6.9,-,N/A,,Clear,80,2012-12-14 01:15:00
7:35 PM,31.6,19.9,62,30.03,10.0,East,4.6,-,N/A,,Clear,80,2012-12-14 01:35:00
7:55 PM,31.3,20.3,64,30.03,10.0,East,8.1,-,N/A,,Clear,80,2012-12-14 01:55:00
8:15 PM,30.7,20.3,65,30.03,10.0,ENE,5.8,-,N/A,,Clear,60,2012-12-14 02:15:00
8:35 PM,30.2,20.7,68,30.03,10.0,East,6.9,-,N/A,,Clear,90,2012-12-14 02:35:00
8:55 PM,30.9,20.7,66,30.03,10.0,ENE,4.6,-,N/A,,Clear,70,2012-12-14 02:55:00
9:15 PM,26.8,18.5,71,30.03,10.0,ENE,6.9,-,N/A,,Clear,70,2012-12-14 03:15:00
9:35 PM,28.0,19.6,71,30.02,10.0,East,6.9,-,N/A,,Clear,90,2012-12-14 03:35:00
9:55 PM,28.2,19.9,71,30.01,10.0,East,6.9,-,N/A,,Clear,80,2012-12-14 03:55:00
10:15 PM,28.2,19.6,70,30.02,10.0,East,4.6,-,N/A,,Clear,90,2012-12-14 04:15:00
10:35 PM,27.1,19.2,72,30.02,10.0,East,4.6,-,N/A,,Clear,100,2012-12-14 04:35:00
10:55 PM,27.7,19.6,72,30.02,10.0,ESE,5.8,-,N/A,,Clear,110,2012-12-14 04:55:00
11:15 PM,28.0,19.9,72,30.01,10.0,East,5.8,-,N/A,,Clear,100,2012-12-14 05:15:00
11:35 PM,23.7,17.2,76,30.01,10.0,East,5.8,-,N/A,,Clear,80,2012-12-14 05:35:00